Back to catalog

THOR BURNER 2 R/B

AliveSSO
NORAD 6788·ROCKET BODY·🇺🇸 United States

Launched Aug 17, 1973 from Vandenberg Space Force Base

Loading…

Next Passes (next 24 hours)

TLE

FreshSource: Space-Track

Epoch: Sep 14, 2026, 13:42 UTC

1 06788U 73054B   26257.57107249  .00000048  00000-0  37431-4 0  9999
2 06788  98.6073 122.7592 0028017 157.2160 203.0271 14.26975021758228

Track THOR BURNER 2 R/B in real time with AllMySat

Download on the App Store